Theta_e
279 279 279 279 279 279 278 278 279 278 279 279 279 279 279 280 280 279 281 280 281 280 280 280 280 280 279 280 281 281 282 284 284 284 283 283 284 285 285 285 285 284 285 285 284 286 287 287 286 286 286 287 287 287 288 288 289 290 292 293 292 292 292 293 293 292 292 290 288 286 285 284 286 284 283 282 282 281 280 282 280 281 280 281 282
278 277 278 278 279 279 279 279 280 277 278 279 278 278 279 279 279 280 281 280 279 280 281 281 281 280 280 280 280 281 281 282 282 282 283 284 284 284 285 285 284 284 285 284 285 285 285 285 285 286 286 286 286 287 287 289 288 289 290 290 292 291 290 290 291 291 288 290 288 286 284 284 284 284 282 281 281 280 280 281 280 280 280 281 281
276 276 277 277 278 278 278 278 278 278 278 277 278 278 278 279 279 280 280 279 280 282 283 282 281 282 281 281 281 281 281 282 282 282 283 283 283 284 284 284 285 285 285 285 284 285 285 285 285 285 285 286 286 286 287 288 289 288 288 289 289 291 290 291 289 290 289 290 290 289 286 284 285 283 283 282 281 280 280 280 281 280 280 280 281
275 276 276 277 277 277 277 277 277 277 277 277 278 278 278 280 279 279 279 279 281 282 284 282 282 283 283 282 282 281 281 284 282 282 281 281 281 283 283 283 283 283 284 284 284 284 284 284 285 284 285 285 285 285 285 287 289 289 288 288 289 286 286 286 289 289 289 288 286 287 286 287 287 285 284 284 282 280 280 280 281 280 280 280 280
275 276 276 276 276 275 276 277 276 276 276 277 277 278 278 278 279 279 279 280 281 283 282 282 282 282 281 281 281 280 279 279 278 279 280 282 283 281 282 282 282 283 283 283 283 283 283 283 283 284 284 285 285 285 285 286 287 289 289 288 286 287 286 286 287 287 287 289 287 286 282 283 286 290 288 285 280 280 280 280 281 281 280 279 280
275 275 275 275 275 275 275 275 275 275 276 277 277 278 277 278 278 279 280 281 281 281 282 282 282 281 280 279 279 279 279 279 278 279 279 279 280 282 282 282 283 283 283 282 283 284 283 283 282 283 283 284 285 285 285 285 285 288 289 289 287 287 286 286 285 287 287 288 288 288 286 284 285 285 287 285 280 282 282 280 281 281 281 280 280
275 274 275 275 275 275 275 275 275 275 276 277 277 277 277 277 278 280 280 280 280 280 281 282 280 281 280 280 279 279 278 279 280 280 279 280 281 280 281 282 282 283 283 282 282 282 282 282 282 283 283 283 285 284 284 284 285 287 288 288 287 287 286 284 285 285 285 286 287 287 288 287 284 283 284 285 280 279 280 280 280 281 281 280 280
273 273 274 275 275 275 274 274 275 275 276 276 276 276 276 277 277 278 279 279 280 280 280 280 280 280 280 280 280 279 279 279 279 279 279 280 280 280 280 280 281 281 282 282 282 282 283 282 282 282 282 283 284 284 284 285 285 285 286 287 287 287 286 285 285 285 285 285 286 286 286 287 286 285 284 283 284 281 279 279 279 280 280 280 280
273 273 273 274 274 274 274 273 274 275 275 275 275 275 276 276 276 276 276 277 277 278 279 279 280 280 280 279 279 279 279 279 280 281 279 279 277 278 279 279 280 280 281 281 281 282 283 283 282 282 282 282 284 283 284 284 284 284 284 284 285 286 286 286 285 285 285 285 285 285 285 285 286 286 285 284 281 281 281 279 279 279 279 280 280
273 273 273 274 274 273 273 274 274 274 275 275 275 275 275 275 275 275 274 275 276 276 277 276 277 277 278 278 277 277 278 278 278 277 277 277 276 277 277 277 279 279 279 280 280 281 281 282 281 281 282 282 284 283 283 283 283 284 284 284 285 285 285 285 285 285 286 286 285 285 285 285 285 285 284 283 283 282 282 279 280 278 277 279 280
273 273 273 273 273 273 273 273 273 274 274 274 274 274 274 274 274 274 274 275 275 275 275 274 275 275 275 275 275 275 276 276 277 277 276 275 275 276 276 277 278 278 279 279 279 278 278 279 278 279 280 282 282 282 282 282 282 282 283 284 283 284 285 285 286 285 285 285 285 285 285 285 285 284 285 284 283 282 281 281 280 280 280 281 280
272 272 272 272 272 272 272 272 273 273 273 273 273 274 274 274 274 273 273 274 274 274 274 273 274 274 274 275 275 275 276 276 276 276 277 276 275 275 275 275 276 277 277 276 275 275 275 275 276 276 277 278 279 280 281 282 282 282 282 282 283 283 284 285 285 284 285 285 285 285 285 285 285 285 286 286 284 283 283 282 279 279 280 280 279
272 272 272 272 272 272 272 272 272 272 273 273 273 273 273 273 273 273 273 273 273 273 272 272 272 272 273 274 275 276 276 276 277 277 277 277 276 275 275 274 274 275 274 274 274 274 274 274 274 274 274 275 276 278 280 281 281 282 282 282 282 282 283 284 284 284 284 284 284 286 286 285 285 286 286 285 285 285 283 282 280 280 278 279 278
272 272 272 272 272 272 272 272 272 272 272 273 273 274 273 273 273 273 272 273 273 272 272 272 272 272 273 274 275 276 275 276 276 277 277 277 276 276 275 274 274 274 274 273 274 274 274 274 274 273 274 274 275 277 279 281 281 281 281 282 282 282 282 282 283 283 283 283 283 284 285 285 285 286 285 286 285 284 283 282 281 279 279 279 277
272 272 272 271 272 272 272 272 272 272 272 273 273 273 273 273 272 272 272 272 272 272 272 271 271 272 273 274 275 275 275 276 277 278 277 276 276 275 275 275 275 274 274 273 274 273 273 273 273 273 273 273 274 275 278 280 281 281 281 281 282 282 281 282 283 283 282 283 283 284 285 285 285 286 286 285 286 285 285 284 283 278 277 277 276
272 271 271 271 272 272 272 272 272 272 272 273 273 273 273 272 272 272 272 272 272 272 271 271 271 272 273 274 274 274 275 276 277 277 277 276 276 275 275 275 275 273 272 272 272 272 272 272 272 272 273 273 273 274 276 279 280 280 281 281 281 282 281 281 282 282 283 283 283 283 285 285 286 285 285 286 286 286 285 285 284 282 279 276 276
271 271 271 272 272 272 272 272 272 272 273 272 273 273 272 272 272 272 272 271 271 271 271 271 271 271 272 273 273 272 273 273 275 274 275 276 276 275 274 273 272 272 271 272 272 272 272 272 272 272 272 273 273 274 276 278 280 280 280 281 281 281 281 281 281 282 283 284 284 284 284 285 286 286 285 286 286 286 285 284 285 284 283 281 276
272 272 272 272 272 272 272 273 272 272 272 272 273 273 272 272 272 271 271 270 270 270 270 270 270 270 271 272 272 272 272 272 271 271 272 273 273 272 272 271 270 271 271 271 272 271 271 273 272 272 272 273 274 275 276 278 279 280 280 280 281 281 281 281 281 281 282 283 284 284 285 285 286 285 285 285 285 286 286 285 284 284 285 282 282
272 272 272 272 272 272 272 272 272 272 273 272 273 273 272 272 272 272 270 270 270 270 270 270 270 271 272 271 271 271 271 270 271 272 272 271 270 271 270 270 270 270 271 270 270 270 271 271 272 272 273 273 274 275 276 277 279 279 280 280 281 281 281 280 281 281 281 282 283 283 285 284 285 285 285 285 285 285 285 286 285 284 284 284 284
272 272 272 272 272 272 272 272 272 272 272 273 273 272 272 271 271 271 271 270 269 269 269 269 269 270 271 271 270 270 270 270 271 270 269 270 270 270 269 269 269 270 270 270 270 270 271 271 272 272 273 274 275 275 276 277 278 279 279 279 280 281 280 280 280 280 281 283 283 283 284 284 285 285 285 285 285 285 285 285 285 284 283 283 284
272 272 272 272 272 272 272 272 272 273 273 274 273 272 271 271 270 270 269 268 268 268 268 268 269 269 268 268 268 269 269 270 269 269 269 269 269 269 268 268 269 269 270 270 270 271 271 272 272 274 275 275 276 277 277 277 278 278 280 280 280 281 280 280 280 280 280 282 283 283 284 284 283 283 284 285 285 285 285 285 285 285 283 284 283
272 272 272 272 272 272 272 272 272 273 273 273 273 271 270 270 270 269 268 268 268 268 268 268 268 268 267 268 268 268 268 268 268 267 267 267 267 267 267 268 268 270 270 270 271 272 273 273 274 275 275 277 277 277 278 278 277 278 280 281 281 280 280 280 280 280 279 281 282 282 283 283 282 282 284 285 285 285 285 284 285 284 283 284 284
272 272 272 272 272 272 272 272 272 272 272 272 272 270 270 269 269 268 268 267 267 267 267 267 267 267 268 268 268 267 268 267 266 266 266 266 266 267 267 267 268 269 270 270 271 271 272 273 274 276 276 276 276 277 278 280 279 279 280 281 281 280 279 279 279 279 279 279 280 282 282 282 282 282 283 284 285 285 285 284 284 285 284 284 284
272 272 272 272 272 272 273 272 272 272 272 272 270 270 270 269 268 268 267 267 267 267 267 267 267 267 267 267 267 267 266 266 265 265 265 266 266 266 267 267 268 268 269 270 270 271 272 273 273 274 275 276 277 277 278 278 279 281 281 281 281 280 280 280 280 280 279 279 279 280 281 280 281 282 283 283 284 285 284 284 284 284 284 284 284
271 272 272 272 272 272 272 272 272 272 272 271 270 269 269 268 268 267 267 267 266 267 266 266 266 266 266 266 267 267 266 265 265 265 265 266 266 266 267 267 267 268 269 269 270 272 272 273 272 272 272 273 273 274 275 275 276 278 280 281 281 281 281 281 281 280 281 279 279 279 280 280 281 282 282 283 283 283 284 284 284 284 284 284 284
271 271 271 271 272 272 272 272 272 272 271 270 269 269 268 268 267 267 266 266 266 266 266 266 266 265 265 265 266 265 265 264 265 265 265 266 266 266 267 267 267 267 268 270 270 269 269 270 270 272 272 272 272 273 274 274 274 275 277 279 281 281 281 281 280 279 279 280 280 280 279 281 281 281 281 282 282 283 284 283 283 283 284 284 284
271 271 271 271 270 271 271 271 271 271 270 269 269 268 268 267 267 267 266 266 265 266 266 265 265 265 264 264 264 264 264 264 264 265 265 266 266 266 267 267 268 269 269 269 268 268 268 268 268 269 270 271 272 272 273 273 274 275 276 277 278 279 279 278 278 278 278 279 280 280 280 280 281 281 280 280 281 282 283 283 283 283 283 283 283
271 271 270 269 270 270 270 270 270 270 269 269 268 267 267 266 266 266 265 265 265 265 265 264 264 264 264 264 264 264 264 264 265 265 265 266 266 266 266 266 267 268 268 268 267 267 267 268 268 268 269 270 271 272 273 273 274 274 275 276 278 278 277 277 277 278 278 278 278 279 280 279 279 280 279 280 281 282 282 282 283 283 283 283 282
270 270 269 269 268 268 268 269 269 269 268 267 267 266 266 266 265 265 265 265 265 265 264 264 263 263 263 263 264 264 264 265 265 265 265 265 265 265 266 266 267 267 267 267 267 267 266 266 267 268 268 269 270 271 272 273 273 274 274 276 277 278 277 277 276 277 278 278 278 279 280 280 280 281 282 282 282 283 282 281 281 282 282 282 282
268 268 268 267 267 267 267 267 268 267 266 265 265 265 265 264 264 264 264 265 265 264 264 263 263 263 263 263 264 264 265 265 265 265 265 265 265 265 265 265 266 266 266 266 266 266 266 266 266 267 268 268 269 270 272 275 276 275 275 276 278 278 278 278 277 276 277 277 278 278 279 282 281 282 283 283 283 284 284 282 281 282 282 282 281
267 266 265 265 265 265 265 265 264 264 265 264 264 264 264 264 263 263 264 264 264 264 263 263 263 263 264 264 264 264 265 264 265 265 265 265 265 265 265 265 266 266 266 266 266 265 265 266 266 266 266 267 268 269 273 275 277 278 277 276 277 279 279 278 278 277 277 278 278 278 278 281 282 282 282 283 283 284 284 283 283 283 283 282 280
263 263 264 264 264 263 263 263 264 264 264 263 263 263 263 263 263 263 263 264 264 264 263 263 263 264 264 264 264 264 264 264 265 265 265 265 265 265 265 265 265 265 266 266 265 265 265 266 266 266 266 267 268 272 275 276 277 278 278 277 277 278 280 280 279 279 279 279 280 280 280 279 280 281 282 282 283 284 284 284 284 284 283 284 284
262 263 263 263 262 263 263 263 263 263 263 263 263 262 262 262 262 263 264 264 263 263 263 263 264 264 264 264 264 264 264 264 264 265 265 265 265 265 265 265 265 265 266 265 266 266 266 267 267 267 267 268 268 273 275 276 277 278 279 278 277 277 279 280 280 280 279 279 279 279 278 278 279 282 283 282 282 283 284 284 284 284 284 284 284
263 263 262 262 262 262 262 262 262 263 264 263 263 262 262 263 263 263 263 263 263 263 263 263 263 263 263 264 264 264 263 264 264 264 264 264 264 264 265 265 265 265 265 265 266 266 266 267 267 268 268 269 269 273 276 277 278 278 279 279 277 277 277 278 278 278 278 278 279 279 279 278 278 280 282 282 282 281 282 282 283 283 282 283 284
262 261 262 261 261 261 261 262 262 263 262 262 262 262 262 262 263 263 263 262 263 263 263 263 263 263 263 263 263 263 263 263 264 264 264 264 264 264 264 265 265 265 265 265 265 266 266 267 267 268 269 269 270 274 276 278 278 279 280 279 277 277 277 277 277 277 278 279 279 280 280 279 279 279 281 282 281 281 281 281 282 282 282 282 282
261 260 260 260 260 261 261 262 263 262 262 261 261 262 262 262 263 262 262 262 262 262 262 262 262 263 263 263 263 263 263 263 263 263 263 263 264 264 264 265 265 265 266 266 266 267 267 267 268 269 269 269 270 275 277 278 279 280 281 279 278 277 277 277 277 278 278 279 279 280 280 280 280 280 282 284 283 282 281 281 281 281 281 281 282
261 261 260 261 262 261 261 261 261 262 261 261 261 262 262 262 261 261 262 262 261 261 261 262 262 262 262 263 263 262 262 263 263 263 263 263 263 264 264 265 265 265 265 266 266 267 268 268 268 269 269 270 271 274 277 279 280 281 281 279 279 279 278 278 278 278 279 279 280 280 280 280 280 281 282 284 285 283 281 281 281 280 280 280 280
260 260 261 261 260 261 261 261 260 260 261 261 261 261 261 261 261 261 261 261 260 260 261 261 261 262 262 262 263 263 262 262 262 262 263 263 264 264 265 265 265 265 265 266 267 267 268 268 269 269 270 270 272 275 280 282 283 284 283 280 280 280 279 279 279 280 280 280 281 282 282 281 281 281 283 284 285 284 281 281 280 279 278 279 280
260 260 260 259 260 260 260 260 260 259 260 261 261 261 260 260 260 260 260 260 260 260 261 261 261 262 262 262 263 262 262 262 262 263 263 263 263 264 265 265 265 266 266 266 267 267 268 270 271 273 276 275 275 277 279 281 282 283 282 280 281 280 280 280 280 281 281 282 282 282 283 282 282 282 284 285 285 284 282 281 281 280 279 279 280
260 261 260 259 259 258 258 258 259 259 260 261 261 260 260 259 259 260 259 259 260 260 261 262 262 262 262 262 262 262 262 262 262 263 263 263 264 264 265 265 266 266 266 267 268 268 268 269 271 273 274 275 274 274 276 280 281 281 282 280 278 279 279 280 280 280 280 280 281 281 282 284 284 284 284 285 285 285 283 282 281 280 279 279 281
259 259 260 258 258 258 258 258 259 260 260 260 261 260 259 259 259 259 259 259 261 261 261 261 262 261 262 262 262 262 262 262 263 263 263 264 264 265 265 265 265 266 266 266 266 266 267 268 270 272 273 274 274 273 274 279 279 280 281 280 275 275 275 276 278 279 280 280 279 279 280 283 284 284 284 285 285 285 285 283 282 280 281 281 282
260 259 258 257 257 257 258 258 259 260 260 260 260 259 259 259 259 258 259 261 261 261 261 261 261 261 261 261 261 262 262 263 263 263 263 263 264 265 265 265 265 265 265 265 265 266 267 268 269 271 272 273 274 276 273 277 279 279 280 280 276 274 276 275 275 275 276 277 280 281 281 282 284 284 285 285 285 285 285 283 282 283 284 283 281
258 257 257 257 256 256 257 257 258 259 260 260 259 258 258 258 258 259 260 261 261 261 261 261 260 260 261 261 261 262 262 262 263 263 263 263 264 264 264 265 265 265 265 265 266 267 267 267 268 269 270 271 272 273 277 275 278 279 279 279 280 279 280 279 277 276 276 276 277 277 280 283 284 285 285 285 285 285 285 283 285 285 284 283 282
257 257 257 257 256 256 256 257 258 259 259 260 259 258 258 258 258 260 260 261 261 261 260 260 260 260 261 261 261 262 262 262 263 263 263 263 263 264 264 264 264 264 264 265 266 267 267 266 267 268 269 270 271 271 274 277 276 278 279 279 280 280 280 279 278 277 277 278 277 277 278 281 283 284 285 285 285 284 283 284 285 285 284 283 282
256 256 257 256 256 255 256 256 257 258 259 259 259 258 258 257 259 260 260 260 260 260 259 259 259 260 260 261 261 261 262 262 263 263 263 263 264 264 264 264 264 264 265 265 266 267 267 267 268 268 270 271 273 272 271 274 277 278 279 279 279 279 279 280 278 277 277 275 278 280 281 282 282 283 283 284 284 284 284 284 284 284 284 283 281
256 256 256 256 256 256 255 255 256 258 258 259 259 258 257 258 259 260 260 260 259 259 258 259 259 260 260 260 260 261 262 263 263 264 264 264 264 264 264 264 265 265 266 266 266 267 268 269 269 271 272 273 275 274 272 271 275 276 277 278 279 279 279 279 279 278 279 280 280 281 281 281 282 282 281 280 280 282 284 284 284 284 282 282 280
255 255 256 255 255 254 254 255 255 257 258 258 258 258 259 259 259 260 260 260 259 258 258 259 258 259 260 260 260 260 262 263 263 263 264 264 264 264 264 264 265 266 266 267 267 268 269 270 271 272 273 275 275 274 274 274 275 274 275 276 276 276 278 279 278 278 279 278 280 280 280 280 280 281 281 281 280 282 281 282 281 280 278 278 277
255 255 255 255 254 254 254 255 255 257 257 258 258 258 259 259 259 260 259 259 258 258 258 258 259 259 259 260 260 262 262 262 263 264 264 264 265 265 265 265 266 267 267 267 267 268 271 272 273 275 275 275 275 275 275 275 277 277 276 274 274 275 275 275 275 276 276 276 276 277 277 276 276 276 276 275 275 276 276 276 276 276 276 276 277
254 255 255 254 254 254 254 255 255 257 257 257 257 258 258 259 259 259 259 258 258 258 258 258 259 259 259 261 261 261 261 262 263 264 265 266 265 266 267 268 269 270 270 271 272 274 275 276 276 276 275 275 275 275 276 280 279 279 275 271 273 274 275 276 277 277 275 274 274 274 273 273 273 273 273 273 273 273 273 274 274 274 274 273 272
255 255 255 254 254 254 254 255 256 257 257 257 257 257 258 259 259 259 259 258 258 258 258 258 259 259 260 261 261 261 261 262 263 264 265 266 269 272 271 270 270 275 277 278 278 276 277 277 277 278 277 276 276 277 280 280 280 280 280 279 279 279 278 277 277 277 274 271 271 271 271 271 271 271 271 271 271 271 271 271 272 273 271 271 270
254 254 253 253 253 254 254 254 255 256 256 256 256 257 257 258 259 259 259 258 258 258 258 259 259 260 261 261 261 261 262 262 263 264 265 265 266 268 273 274 275 276 277 278 278 279 279 280 279 278 279 280 281 281 281 281 280 280 280 279 279 278 278 277 276 273 271 269 269 269 269 269 270 270 270 270 270 270 269 269 268 268 269 268 267
Wind_Speed
3 5 4 3 4 4 4 5 5 5 6 7 8 9 9 10 9 9 9 7 5 5 5 5 6 6 3 4 6 5 6 8 7 7 6 6 6 6 6 6 5 6 6 6 7 6 6 5 4 4 4 4 4 5 5 4 4 4 6 4 5 7 6 3 4 3 6 5 1 3 3 0 3 4 7 7 8 7 6 7 7 7 7 7 8
4 4 7 5 6 7 7 8 8 9 11 11 12 12 11 11 9 9 9 6 5 4 5 5 5 5 6 6 5 6 6 7 7 6 6 6 6 6 6 6 5 5 5 5 6 6 7 6 6 6 5 5 5 5 4 4 4 4 4 5 2 5 6 3 4 1 3 7 7 5 3 1 2 3 5 6 6 5 7 7 7 9 9 8 7
4 4 7 6 7 7 8 9 8 8 10 10 10 11 12 10 8 8 7 5 4 5 6 7 6 5 4 5 5 5 5 6 6 6 5 6 7 6 6 6 6 6 5 5 6 6 6 7 7 7 5 5 4 5 5 5 5 4 4 4 6 3 5 5 5 4 5 4 7 4 7 6 4 3 5 7 7 7 6 7 7 8 10 9 8
6 7 10 8 7 8 8 8 10 10 10 10 11 12 10 11 11 11 8 5 5 7 9 10 10 9 6 6 6 5 6 5 4 5 5 5 6 6 6 7 6 5 6 6 6 6 6 7 7 6 7 6 6 6 5 5 5 5 4 4 4 5 2 3 3 3 5 4 7 8 3 8 12 13 11 10 9 6 7 8 7 9 9 8 6
8 9 10 9 9 9 10 10 10 10 10 11 11 12 12 15 15 16 9 7 9 12 12 10 10 8 7 7 5 5 3 4 3 4 5 4 5 4 6 5 6 7 6 6 6 6 6 6 6 6 6 6 6 6 6 6 7 6 6 4 4 5 6 3 2 3 4 5 2 2 1 3 8 8 14 6 7 7 10 11 10 9 7 8 8
8 8 8 8 7 7 8 8 9 9 10 10 11 14 16 15 16 16 10 12 14 14 14 12 10 9 9 9 10 7 8 8 8 7 5 5 5 5 5 6 6 6 6 6 6 6 6 6 5 5 5 6 6 7 7 6 5 6 7 7 7 5 5 6 4 2 4 6 5 4 1 1 0 2 5 8 4 7 8 8 9 10 8 8 8
5 4 5 8 9 9 9 10 11 10 10 9 11 13 15 14 14 13 12 11 12 12 13 12 12 10 10 10 10 9 9 7 7 6 6 6 5 5 6 5 4 5 5 4 4 6 6 6 6 5 6 6 6 6 7 7 7 7 7 5 7 6 5 6 7 5 2 4 6 8 10 5 3 1 6 2 5 2 4 8 11 11 11 11 11
6 6 7 8 9 9 10 9 9 7 5 8 10 11 12 12 12 13 12 12 11 12 13 13 12 11 12 12 11 11 11 12 11 8 6 4 6 6 6 5 5 4 4 3 3 4 4 6 6 6 7 6 6 6 8 8 7 6 6 7 7 5 7 7 7 5 5 4 3 7 8 8 7 5 6 4 3 4 6 2 2 8 8 10 11
5 7 7 8 8 6 6 7 6 3 5 8 9 9 10 10 12 12 13 14 13 16 15 15 15 14 12 11 11 11 13 12 11 9 7 5 5 6 5 5 5 3 3 4 5 4 4 5 6 7 7 7 6 6 7 8 7 7 6 6 6 6 7 8 7 5 5 7 4 4 5 7 7 8 6 4 4 2 4 10 9 4 6 8 10
1 1 3 4 4 4 4 7 6 3 4 5 6 8 8 8 10 11 12 12 13 15 14 16 16 16 15 15 16 15 14 13 11 11 9 6 7 6 5 5 5 3 4 4 4 4 4 5 5 6 8 8 7 7 7 7 7 7 7 7 7 8 6 7 8 7 7 6 5 4 5 4 6 6 7 7 7 7 6 6 9 12 12 14 11
2 2 3 3 4 4 5 6 3 2 3 4 5 6 7 7 8 10 11 11 12 13 14 16 15 15 15 15 17 18 17 15 14 12 9 8 7 7 5 6 4 5 5 3 1 3 5 6 7 7 8 8 9 9 8 8 8 7 8 8 8 8 7 8 8 6 6 6 6 6 6 7 6 7 7 7 8 7 7 6 6 10 14 13 11
3 3 3 3 4 3 4 5 3 4 4 6 6 6 7 7 8 9 9 10 10 11 13 16 15 14 15 16 16 16 17 14 14 14 13 11 8 7 6 5 5 6 4 3 3 2 3 5 6 8 8 9 9 9 9 8 8 7 7 7 9 9 8 7 7 8 8 7 7 6 7 6 6 7 6 5 8 9 7 6 5 5 7 7 1
4 4 4 3 5 7 8 6 3 4 5 7 8 7 7 7 8 8 9 10 10 11 13 14 16 15 15 15 13 14 15 16 16 15 13 11 7 6 6 6 6 6 5 4 3 3 3 5 7 8 9 9 10 11 11 10 9 8 7 8 7 7 7 8 8 9 9 8 7 8 7 7 7 7 6 6 5 7 7 6 3 6 7 8 4
4 5 5 6 6 6 6 6 5 5 5 7 7 6 6 7 6 7 9 8 9 11 13 14 14 16 16 14 13 12 13 14 15 14 10 5 4 6 7 7 8 7 5 4 3 3 4 6 8 10 11 11 11 12 12 11 9 8 8 9 9 9 8 9 10 10 9 8 6 6 7 7 7 7 6 6 7 6 8 9 4 3 3 3 2
4 5 6 7 8 8 9 8 6 5 6 7 6 6 6 7 5 6 8 7 9 11 11 13 15 15 15 15 13 11 12 13 13 7 5 6 6 8 9 8 8 5 3 3 5 7 9 10 11 12 12 12 11 12 12 11 9 8 8 9 9 8 8 9 9 9 9 9 8 8 7 8 7 7 7 8 7 8 7 8 8 6 3 1 5
6 7 8 7 7 8 8 9 7 6 7 8 7 7 7 7 6 6 7 8 10 11 12 13 15 13 15 16 13 15 15 14 11 9 7 7 9 10 10 7 4 5 6 7 8 9 9 11 12 13 13 13 12 12 13 11 9 9 9 8 10 8 8 9 9 9 10 10 9 8 8 8 7 7 7 7 7 8 7 7 7 8 9 7 2
9 9 9 9 8 8 9 9 7 6 7 8 8 7 7 7 5 6 7 8 10 10 12 13 13 17 17 14 12 13 14 15 13 13 14 11 11 8 4 6 7 6 7 7 10 10 10 11 12 12 12 12 12 12 12 12 10 9 9 9 10 8 8 9 9 9 9 10 8 9 8 8 8 7 7 7 7 7 8 7 8 9 9 10 7
10 9 9 9 9 10 10 8 7 7 8 8 8 6 5 5 4 7 8 11 10 11 13 15 16 16 14 13 13 12 12 12 13 16 16 15 8 6 7 7 8 8 9 10 10 11 11 11 10 11 11 12 12 12 12 12 10 9 9 10 10 8 8 8 8 9 10 8 9 9 8 8 7 8 8 8 8 8 8 9 9 9 9 11 8
11 12 12 11 10 11 11 11 8 7 8 8 7 6 4 3 4 6 9 9 10 12 13 13 14 12 11 11 11 11 11 13 14 12 9 9 11 10 9 9 9 9 10 10 11 10 10 10 10 11 11 12 12 12 11 11 10 10 9 9 9 8 8 9 9 9 9 8 8 10 9 8 8 8 8 8 8 8 8 8 9 9 10 10 10
13 13 13 12 11 11 11 10 8 8 9 8 7 5 4 3 5 7 8 9 11 13 13 14 12 12 13 12 12 13 13 11 10 11 12 12 11 9 10 10 10 10 10 11 10 11 10 11 10 11 11 12 12 11 11 11 10 10 9 8 8 8 9 10 9 8 7 8 9 9 9 8 8 8 8 8 8 8 8 8 8 9 10 10 9
14 14 14 13 12 11 11 8 6 7 8 8 7 4 3 3 6 8 9 11 13 13 13 13 12 12 15 15 15 11 11 11 13 13 11 10 9 10 9 9 11 11 11 10 11 11 11 11 12 11 12 12 12 11 10 10 10 10 9 9 9 9 10 9 8 8 7 8 9 9 10 10 8 8 7 8 8 8 8 8 8 9 9 10 10
16 16 14 14 12 11 9 6 6 8 10 10 7 2 3 6 7 8 9 10 12 13 14 14 12 11 15 13 11 12 12 12 10 8 10 11 10 10 10 11 11 10 8 10 10 10 10 11 12 12 12 10 9 10 11 10 10 10 10 8 8 9 10 10 8 8 8 8 8 10 10 9 9 8 9 8 8 8 8 8 8 9 9 10 10
16 17 15 13 11 9 7 9 10 10 11 10 4 4 6 7 9 8 10 12 13 14 15 13 13 14 15 14 12 12 10 8 9 10 10 11 11 10 9 11 11 9 10 10 11 11 11 11 12 11 9 9 10 10 10 10 10 11 11 10 9 9 10 10 9 9 8 7 8 10 10 9 8 8 9 8 8 8 8 9 9 8 9 10 10
16 15 13 13 10 8 9 10 10 10 12 6 4 6 7 8 9 10 13 14 14 15 13 11 13 15 14 14 13 10 9 10 11 11 13 12 12 11 10 11 12 11 10 10 11 12 11 10 11 12 11 9 9 6 6 8 10 9 11 10 9 9 9 9 10 9 9 8 9 10 10 9 8 8 8 7 7 7 7 7 8 7 8 9 9
16 16 16 15 13 11 10 9 11 12 8 5 7 7 8 9 9 11 12 13 15 14 14 14 14 15 15 14 14 14 12 11 12 12 14 13 12 12 10 11 10 11 10 11 11 9 9 9 9 9 9 9 9 9 7 8 8 10 8 7 8 8 9 9 9 9 8 9 9 10 10 8 9 9 8 8 7 8 7 7 7 7 7 7 7
15 17 17 17 14 12 11 13 13 9 6 6 7 8 9 9 12 13 14 15 15 13 13 14 13 14 14 15 14 12 13 14 14 13 13 13 12 12 12 11 11 12 13 10 8 8 9 11 11 10 9 9 9 9 9 9 10 9 9 8 6 7 8 8 8 8 8 8 9 9 9 9 10 10 9 8 8 8 7 6 7 7 6 6 6
20 20 19 15 16 16 15 16 15 6 6 6 7 9 12 14 12 10 10 13 16 14 14 13 14 14 13 13 14 14 13 13 12 12 12 12 13 13 13 14 13 12 10 9 9 9 9 11 12 12 12 10 9 9 9 9 9 8 8 8 7 6 6 6 6 7 7 8 8 8 9 10 10 10 10 9 9 8 8 7 7 7 6 6 6
19 19 16 16 16 15 16 17 15 7 8 11 12 13 12 11 13 15 16 16 13 14 13 13 13 13 12 13 12 12 12 12 12 12 12 11 11 12 13 13 14 13 10 9 9 10 10 10 10 12 12 11 10 10 9 10 9 9 8 9 9 7 6 6 6 6 7 7 8 9 9 8 10 10 9 9 9 9 8 8 7 6 6 7 7
19 15 16 17 19 18 18 18 16 13 15 13 12 12 12 12 10 12 14 16 15 13 13 13 13 13 12 11 12 11 11 12 11 11 10 11 11 12 12 12 12 10 8 9 9 10 10 11 10 10 11 9 9 9 8 7 9 10 9 9 9 8 8 7 6 7 7 8 7 8 9 9 10 11 11 10 10 9 9 8 7 7 7 7 7
18 18 19 20 21 22 22 22 19 16 15 15 15 15 13 11 12 13 16 16 13 12 13 13 14 13 12 12 12 12 11 12 13 12 11 11 11 11 11 10 10 10 10 9 10 9 9 10 11 11 10 10 9 8 12 20 18 11 9 9 9 9 8 7 7 7 7 7 8 8 8 12 13 16 16 13 11 14 12 10 8 8 8 8 7
20 23 25 25 24 21 19 20 19 18 18 16 16 13 10 11 13 15 16 15 13 13 13 14 14 13 11 11 11 12 13 14 13 13 12 13 13 10 10 10 11 11 11 11 10 10 10 10 10 11 11 10 10 10 19 20 21 23 15 10 10 9 8 8 7 7 7 7 7 7 7 11 13 14 13 17 16 17 15 11 12 12 9 8 8
22 23 22 20 21 20 19 19 19 20 19 17 14 10 13 14 15 15 14 13 12 13 14 14 14 14 13 13 13 14 14 14 13 13 13 13 13 12 12 12 12 12 12 10 11 11 11 10 10 10 11 11 10 16 21 21 22 22 20 13 10 10 9 8 8 7 7 6 7 7 7 6 7 9 9 11 14 16 16 15 16 15 15 15 13
20 21 20 20 20 19 21 21 19 17 17 14 14 15 15 16 15 15 14 13 14 14 14 15 14 14 14 14 14 14 14 13 13 14 13 13 13 13 13 14 14 13 12 12 12 12 11 10 10 11 11 11 10 18 21 23 22 22 22 18 11 10 9 7 6 7 6 6 5 6 5 6 7 14 11 9 10 12 16 18 17 18 17 15 14
19 20 19 19 19 19 19 18 18 17 15 15 15 15 14 14 14 14 14 14 14 14 14 14 14 14 15 14 14 14 13 14 14 14 13 13 13 13 13 12 12 12 11 12 12 13 12 11 10 11 12 12 12 16 21 22 21 21 21 19 11 10 9 8 7 6 6 6 7 7 6 6 6 8 8 9 9 9 9 11 11 10 10 13 15
18 20 20 20 20 18 17 18 16 15 16 16 15 14 14 14 15 15 15 15 15 15 15 15 15 15 14 14 14 14 14 14 14 14 13 13 13 13 12 11 10 10 11 11 11 11 11 11 11 11 11 12 11 18 19 20 19 20 21 18 11 10 10 9 8 8 8 8 8 8 8 7 7 8 8 11 10 9 9 9 10 10 9 8 9
18 20 21 19 19 19 18 19 17 17 16 16 15 15 16 15 15 15 15 15 15 15 15 15 15 15 15 15 15 14 14 14 14 14 13 13 12 12 13 12 11 11 10 10 10 10 11 11 11 11 11 11 11 18 19 19 20 20 21 12 10 11 10 10 10 10 10 9 9 9 8 8 8 8 13 18 15 10 10 11 10 10 9 8 8
21 19 18 18 18 20 21 20 20 18 17 17 16 16 16 16 16 15 15 15 15 15 15 16 15 16 15 14 14 14 13 13 14 13 13 12 12 13 11 10 11 10 10 10 10 10 9 10 11 10 10 10 10 14 18 19 20 23 17 11 11 11 10 12 12 11 11 10 9 9 9 9 9 9 14 18 19 18 11 12 11 10 9 8 8
20 19 18 17 20 19 19 18 19 18 17 16 17 16 16 16 16 16 16 16 16 16 16 16 15 16 15 14 13 13 13 13 13 13 13 13 11 10 10 10 10 10 10 9 10 10 9 9 10 10 9 8 10 13 17 17 17 10 5 13 12 10 11 11 11 11 9 9 12 19 15 11 10 11 16 19 21 17 11 12 12 11 12 11 9
20 20 20 19 18 19 19 19 18 18 18 19 18 17 16 16 16 16 15 16 16 17 17 17 16 16 15 13 13 13 13 12 13 13 12 12 12 11 11 11 10 9 10 10 9 9 9 8 8 9 13 10 7 8 13 15 15 13 6 2 2 9 11 10 10 10 10 9 10 13 18 15 12 13 18 18 21 18 11 11 12 11 12 12 10
21 18 19 18 18 18 19 20 20 19 19 19 17 16 17 16 17 15 16 16 17 18 17 16 16 15 14 13 13 12 12 12 13 13 11 11 10 11 10 10 9 9 9 9 8 8 10 10 9 10 9 8 7 6 7 14 13 11 10 2 1 1 1 3 6 6 6 7 7 7 11 18 19 18 18 20 20 22 14 11 11 11 11 12 9
20 18 21 17 17 16 18 20 17 18 18 17 16 17 17 16 16 15 17 17 17 17 17 16 15 15 15 14 12 12 14 14 12 12 12 11 9 10 10 9 9 8 8 8 9 9 9 9 9 9 8 9 8 8 7 13 12 11 10 6 1 1 2 2 2 3 4 6 7 7 6 13 19 20 19 21 22 23 19 12 12 11 12 12 10
18 19 20 18 17 18 20 19 18 18 18 17 17 17 16 17 16 17 19 17 17 16 15 16 17 16 15 14 13 13 12 12 12 11 12 11 10 9 9 9 8 8 9 9 8 7 7 8 8 8 7 8 8 9 6 9 12 11 9 10 3 3 4 3 4 4 4 4 3 5 6 11 16 20 22 22 23 22 22 13 12 16 17 17 12
19 19 20 19 18 18 19 20 18 18 17 17 17 18 17 17 17 19 17 16 16 16 16 16 15 14 14 14 14 14 13 11 11 11 12 12 10 9 9 8 8 9 9 10 9 8 8 9 9 8 7 8 8 8 11 7 10 11 10 9 9 6 8 5 6 6 6 6 5 4 4 7 15 19 21 23 23 24 20 13 18 21 19 19 14
18 18 19 21 18 18 18 19 18 17 17 16 16 17 18 19 19 17 16 15 15 15 15 15 14 14 14 14 14 14 13 11 11 11 11 11 11 10 9 7 8 7 8 9 8 8 8 8 9 10 9 7 7 6 7 10 8 10 8 8 8 9 10 5 4 5 4 5 5 5 5 11 11 13 18 22 22 20 13 19 21 22 20 18 12
19 19 20 18 18 20 18 19 18 19 17 15 16 17 20 20 18 16 16 16 16 16 15 15 15 14 14 13 13 12 12 11 11 10 10 9 10 9 9 8 8 7 7 7 8 7 8 9 9 9 9 8 7 6 6 7 11 11 9 8 7 8 9 10 6 4 6 5 7 12 13 12 12 13 13 14 15 19 22 20 19 19 19 11 11
19 19 19 19 17 17 17 19 20 19 17 15 16 16 18 17 16 15 15 15 16 16 16 16 15 14 14 14 14 13 12 12 12 9 9 8 8 8 8 8 7 7 7 7 8 8 8 8 9 9 8 8 7 5 5 6 6 7 7 9 10 9 9 10 10 7 9 11 13 14 15 14 13 10 6 3 4 8 18 20 16 13 10 9 8
19 19 19 18 17 17 19 20 20 19 17 16 15 14 13 13 15 14 14 14 16 16 16 15 14 14 13 12 13 11 12 11 10 9 9 8 7 7 7 7 6 7 7 7 8 9 9 9 9 9 8 6 4 5 5 5 5 4 4 4 5 5 6 5 4 4 6 5 9 9 8 10 8 10 8 5 3 3 5 6 6 6 5 6 7
17 18 18 17 17 18 18 19 18 17 17 17 15 13 14 15 14 14 14 14 15 15 15 14 15 13 11 11 11 15 15 11 11 10 9 9 8 8 7 7 7 7 8 10 9 9 9 8 7 8 6 5 5 5 5 4 4 4 4 3 3 5 5 4 3 3 3 4 5 4 2 2 2 2 2 4 4 4 4 5 6 6 6 5 7
19 18 18 17 18 17 18 17 17 15 15 14 15 15 14 15 14 13 14 15 15 16 15 14 13 12 12 11 11 10 10 11 13 13 10 7 7 9 8 9 8 6 6 8 8 8 7 8 8 8 6 5 4 5 4 6 6 6 5 5 4 3 4 4 5 6 4 5 5 4 4 3 3 4 4 4 4 5 5 5 7 7 7 7 7
16 15 16 17 16 17 17 17 15 15 14 14 14 14 14 13 14 14 16 16 16 15 14 13 12 11 11 11 11 11 10 10 10 10 13 14 12 15 10 7 8 15 20 19 15 10 11 9 8 8 5 4 4 4 7 10 10 10 10 8 7 7 6 5 8 10 6 5 4 4 3 3 4 4 5 5 5 5 6 6 5 7 7 7 6
17 17 17 16 17 17 16 16 15 15 14 14 14 14 14 14 14 14 15 16 16 13 12 12 12 11 13 12 11 11 10 10 9 9 9 10 12 13 16 16 16 18 19 20 19 20 22 21 14 8 6 9 9 10 12 12 12 11 10 9 9 7 6 6 6 6 6 4 4 5 4 4 4 4 5 5 5 6 6 7 6 6 6 7 7
Wind_Direction
63 62 21 10 2 350 351 346 343 7 5 355 344 334 320 312 310 309 308 303 312 315 313 306 307 298 288 292 294 292 290 294 292 290 296 292 296 299 299 295 295 297 294 296 293 285 269 261 252 258 249 245 248 258 264 271 271 274 291 289 299 298 292 288 279 257 226 230 122 161 184 313 214 194 204 200 197 195 179 182 185 176 194 190 195
47 31 13 8 6 2 5 1 360 6 355 349 338 331 323 315 311 313 317 317 308 296 296 296 280 280 282 281 272 281 293 293 290 291 291 301 306 302 301 299 298 292 294 299 296 290 286 276 260 250 245 245 237 246 261 259 272 279 280 294 244 277 283 291 293 214 226 214 198 207 200 101 181 214 222 226 206 191 188 187 182 191 192 194 187
35 28 8 4 3 8 14 4 4 354 341 337 329 326 321 317 314 318 320 310 291 301 315 314 307 297 290 285 289 285 264 267 275 278 298 302 300 302 303 307 301 300 299 298 295 289 278 273 267 255 251 241 248 253 245 259 259 262 260 261 292 255 270 280 277 199 245 219 233 226 213 210 213 225 240 230 204 196 186 195 193 198 198 192 188
22 14 2 4 10 10 7 1 355 345 339 335 335 334 331 331 325 324 318 296 307 315 322 321 311 304 295 281 286 271 274 283 284 291 290 291 296 295 303 294 296 295 296 293 289 285 281 275 272 270 258 244 237 241 242 246 257 260 251 243 240 282 256 283 211 226 213 213 225 212 203 209 219 222 217 220 191 177 180 205 195 204 200 197 190
21 7 1 6 6 6 3 354 350 345 341 340 342 345 346 342 339 330 314 324 328 325 321 318 315 311 309 309 298 297 280 275 286 287 277 278 290 294 283 290 295 291 288 289 288 286 284 280 277 273 267 261 248 242 240 234 237 238 239 239 221 223 262 251 273 232 248 235 243 114 160 232 227 224 199 214 137 177 206 201 201 202 198 199 202
22 8 360 360 357 349 353 352 347 345 344 349 357 357 353 347 344 342 340 340 338 334 329 325 320 311 315 315 308 302 301 306 304 292 290 287 277 279 290 281 275 282 286 290 291 288 287 282 283 284 280 275 261 249 248 252 248 236 229 225 229 217 223 248 265 223 244 261 240 252 345 152 290 316 126 216 170 216 201 196 202 204 199 203 210
14 12 1 357 352 349 351 353 348 348 347 5 1 356 351 344 342 338 337 336 333 330 327 325 318 312 309 302 292 284 286 277 275 273 268 274 274 282 275 276 274 276 284 289 298 297 294 295 296 292 289 283 277 271 267 250 241 235 236 226 221 215 203 235 242 247 234 254 249 248 258 222 166 257 221 105 216 209 213 189 208 203 200 202 209
2 1 360 355 350 348 345 341 336 333 351 5 356 352 347 341 340 336 335 331 331 328 330 332 326 324 322 317 308 306 302 296 287 279 271 267 280 274 278 277 273 268 280 302 312 313 313 313 312 310 304 293 284 276 268 260 251 250 237 227 223 205 197 217 237 229 220 243 189 241 245 249 232 218 246 275 321 191 206 222 248 200 206 217 215
360 360 352 347 338 333 320 320 306 330 11 360 353 344 342 340 338 338 340 339 337 338 338 342 339 332 326 318 312 308 304 299 291 281 278 277 271 269 273 275 276 274 291 304 302 300 311 315 317 313 308 303 296 286 277 270 256 246 244 237 222 216 206 212 220 223 205 231 215 233 238 243 239 227 234 210 239 240 214 194 204 183 222 233 222
310 318 306 312 304 289 296 308 314 337 357 347 341 339 336 334 331 336 338 340 338 339 341 340 336 330 323 318 314 308 306 301 292 282 274 267 265 266 264 272 272 294 298 290 296 316 329 328 319 312 307 302 301 290 284 281 274 261 245 234 228 222 214 213 217 219 218 221 206 210 239 247 241 241 219 217 240 242 246 200 202 187 203 224 210
276 282 303 304 294 287 290 306 274 285 309 323 330 329 326 325 326 330 332 334 337 337 341 335 332 326 319 316 312 309 304 299 294 283 270 265 259 258 261 259 264 274 276 273 309 338 333 327 323 316 310 305 300 299 289 277 272 264 255 245 238 224 217 215 224 225 218 221 211 201 223 230 239 238 227 209 212 224 236 235 194 193 207 224 209
285 288 281 271 266 277 305 317 270 284 308 325 329 326 324 323 322 322 325 331 331 335 338 333 327 321 314 309 307 305 302 297 291 284 274 263 254 261 265 272 271 266 260 266 292 308 312 309 311 307 303 301 297 290 286 280 270 263 256 245 237 224 217 214 219 225 221 223 222 209 219 221 233 239 250 220 206 220 220 229 194 181 228 241 123
266 274 290 299 327 336 337 318 267 297 309 323 327 323 318 318 316 316 320 329 331 339 333 327 324 318 311 304 299 303 301 299 291 282 270 267 261 271 276 277 275 273 257 264 270 281 292 301 302 298 297 292 290 289 282 277 272 262 250 243 238 235 224 215 217 220 218 217 220 216 215 215 224 228 232 234 221 220 219 232 219 186 192 210 210
274 289 315 330 326 325 317 295 250 267 295 314 314 311 307 308 303 305 313 322 329 330 327 324 320 315 308 298 297 298 299 300 295 280 268 259 260 275 281 284 280 263 260 263 274 297 300 293 292 289 284 282 280 280 276 271 268 264 258 250 240 231 224 218 220 221 220 223 220 216 214 219 222 220 221 222 222 212 217 220 200 209 230 205 120
283 308 324 328 320 313 310 295 264 268 297 312 310 304 305 304 296 302 310 321 328 325 324 322 317 312 304 299 293 297 302 302 298 297 307 302 296 290 287 279 269 275 294 304 309 302 293 289 287 284 282 279 275 274 272 265 261 260 257 253 249 237 227 219 220 219 219 219 221 215 221 220 221 218 207 223 217 222 220 214 206 185 215 160 182
314 320 323 314 302 296 293 286 264 273 300 307 307 302 302 300 296 299 312 320 323 322 321 318 313 305 299 294 299 305 304 301 295 294 288 279 280 282 280 280 286 305 304 299 291 288 286 284 282 279 281 277 273 268 267 264 259 255 255 250 246 234 226 218 220 218 220 219 218 218 221 227 225 222 213 216 217 220 223 222 217 205 201 208 180
320 319 313 301 293 284 284 275 259 271 294 300 298 298 294 293 295 302 312 316 316 318 315 313 308 304 298 293 297 299 300 299 303 308 303 297 288 282 297 302 300 295 291 290 288 283 281 279 277 274 271 271 270 264 261 260 257 250 249 248 246 236 220 222 218 217 219 217 220 219 219 225 228 225 222 218 216 217 220 221 223 220 211 215 197
314 305 297 290 285 287 287 270 254 273 292 294 292 288 272 272 290 308 315 317 318 318 317 314 308 300 292 292 292 294 297 302 307 305 300 296 305 312 303 300 298 296 291 288 283 281 278 276 274 273 270 267 266 265 259 255 251 248 244 243 243 239 226 225 219 214 216 212 214 218 219 227 226 226 225 221 216 212 218 217 218 224 224 224 214
315 312 309 301 291 289 289 278 266 279 291 291 287 278 266 268 294 312 316 318 319 318 313 308 302 294 292 291 294 301 305 302 294 290 305 314 303 298 300 299 299 293 288 286 282 278 275 271 269 268 266 265 264 262 259 255 250 251 246 243 240 235 229 226 218 210 214 210 211 217 217 223 223 227 229 228 220 213 214 217 219 219 225 227 225
315 313 308 299 290 287 284 277 276 290 298 295 289 274 272 294 317 320 318 320 317 314 312 307 301 301 304 305 306 301 293 295 306 310 301 295 296 304 311 308 297 292 283 278 276 275 273 273 269 266 265 262 260 260 257 255 251 247 247 244 240 227 228 227 222 208 209 205 210 216 217 219 220 223 228 228 224 217 212 212 214 216 223 225 227
316 312 306 300 293 289 282 273 280 297 299 296 288 278 296 331 327 327 325 321 313 309 305 304 304 302 303 297 292 295 304 305 300 300 307 312 318 313 306 297 293 283 280 277 276 274 271 268 267 265 267 270 265 262 260 254 249 247 243 241 239 227 224 228 223 215 207 203 208 215 217 218 218 219 224 227 224 220 214 212 208 211 217 219 220
313 311 306 302 297 289 283 282 300 308 304 300 298 329 353 334 329 326 320 314 311 310 310 306 303 302 296 300 315 315 307 300 309 328 313 307 303 304 301 299 292 288 290 288 282 277 273 270 269 267 263 264 274 277 272 258 248 246 246 238 234 225 223 224 217 221 207 204 207 214 217 216 213 213 220 226 222 221 218 213 210 205 210 214 215
311 310 308 304 299 298 301 307 309 310 308 304 340 8 341 331 327 320 314 311 311 310 309 306 306 305 304 303 304 303 306 321 320 309 306 302 296 292 294 290 291 295 293 295 293 290 289 288 286 282 274 271 271 273 274 270 252 242 242 240 231 223 219 218 215 217 212 201 206 212 216 213 209 210 217 223 222 224 218 216 215 206 209 213 211
309 307 309 309 312 314 309 308 317 322 313 346 14 342 334 331 324 320 317 316 316 314 309 304 307 307 309 309 307 314 322 317 315 311 305 304 299 293 292 291 289 285 285 284 286 280 278 282 283 279 275 274 280 292 305 312 303 264 238 233 229 223 218 216 214 214 212 202 205 209 214 211 205 206 212 215 220 221 219 218 218 210 209 212 208
318 322 323 318 315 318 319 330 329 321 332 13 334 335 329 321 318 316 314 316 315 315 312 311 310 310 310 309 307 306 303 306 309 310 306 304 301 298 292 289 288 284 282 279 278 293 297 298 306 318 316 310 310 306 304 303 303 306 291 253 234 225 218 216 214 215 211 206 207 210 212 203 201 204 209 208 209 213 215 215 217 213 209 208 207
326 325 321 321 326 327 341 342 330 327 341 340 337 325 319 316 321 324 322 323 322 315 313 315 314 312 312 311 315 322 318 312 307 299 297 297 296 293 292 287 281 280 275 280 307 312 311 306 302 299 299 301 297 292 290 291 294 295 295 291 273 246 228 214 213 212 213 210 211 213 212 200 200 201 203 202 200 203 209 211 213 211 205 200 200
334 331 335 349 345 341 348 339 328 329 353 333 328 327 322 321 319 323 324 320 318 316 317 315 315 314 313 314 315 313 308 303 300 295 293 292 296 302 304 303 296 278 283 300 307 306 301 303 298 295 291 291 293 290 284 281 284 286 288 286 276 261 241 226 216 215 212 214 214 215 213 205 203 201 199 193 192 197 202 208 209 206 200 198 194
334 338 351 351 348 345 345 344 339 349 340 328 333 333 328 324 322 325 329 324 319 318 316 317 317 316 314 313 310 304 300 294 291 290 288 291 299 301 301 298 296 298 303 303 301 297 294 288 290 289 285 285 285 285 281 278 275 276 277 279 272 258 243 233 228 221 218 215 214 215 216 204 203 207 201 193 185 191 195 203 206 196 194 192 193
339 357 356 355 352 348 344 345 340 329 334 342 339 330 325 322 326 326 325 323 321 316 318 317 316 315 314 309 303 298 294 290 290 291 295 297 297 295 292 290 290 295 297 294 292 290 286 284 278 274 276 272 268 267 270 268 271 269 265 267 265 254 240 233 227 226 219 217 216 216 215 212 209 209 203 189 188 181 182 194 200 193 193 190 191
357 1 359 352 346 339 333 331 333 349 351 342 335 328 327 331 331 327 325 324 323 319 318 318 316 314 307 300 297 294 296 306 308 306 301 296 291 290 286 286 290 293 292 290 286 280 278 275 277 276 271 269 264 261 264 267 264 261 258 258 258 250 241 231 226 224 220 213 213 211 216 211 206 215 217 203 187 186 185 181 180 187 190 190 190
5 358 346 338 334 339 351 354 350 345 340 335 327 327 337 334 329 324 324 325 323 321 322 320 316 310 304 304 307 314 316 312 309 304 301 299 300 295 291 291 292 290 289 288 283 280 277 275 272 270 271 266 262 259 263 263 264 260 257 253 253 255 240 229 222 216 218 211 210 209 212 222 225 225 221 221 212 201 193 172 167 175 187 186 185
356 344 340 345 354 350 347 344 344 336 332 329 333 352 341 332 324 324 327 326 325 326 323 320 317 318 319 319 318 315 312 310 309 307 307 306 305 302 297 294 292 291 290 285 282 276 273 270 267 264 262 262 259 261 262 262 260 258 253 248 246 251 246 230 219 215 215 209 207 204 207 208 213 216 212 213 214 210 200 185 177 179 193 201 199
348 342 350 353 346 347 343 337 331 333 332 346 355 343 338 328 330 332 331 331 329 326 324 322 324 324 321 320 317 316 313 313 313 311 308 304 301 297 295 293 291 289 288 283 281 281 277 272 269 267 266 261 259 262 263 260 258 255 252 246 239 240 246 242 222 216 212 211 206 204 204 202 210 221 219 211 207 206 202 194 184 179 183 197 207
343 353 348 345 345 339 337 336 333 336 355 352 343 337 329 332 335 334 334 334 330 328 327 326 325 324 322 321 320 318 317 314 311 308 306 303 300 298 295 292 289 286 282 282 281 279 278 273 266 263 264 262 258 261 262 259 255 252 249 245 238 234 233 233 233 221 217 217 214 212 211 209 201 208 210 209 206 205 205 204 200 192 190 197 205
354 351 349 345 342 339 338 339 343 356 351 346 340 337 338 336 338 336 338 334 332 330 330 328 325 324 324 324 322 319 315 313 310 308 305 302 300 298 295 294 289 287 286 281 278 277 270 266 262 258 260 263 259 262 264 261 257 250 245 242 235 229 226 229 230 229 227 225 221 219 216 217 205 199 204 207 202 202 202 203 200 200 193 197 201
357 351 346 349 344 339 342 349 352 350 348 345 341 339 337 338 338 338 336 334 334 333 330 328 326 326 326 324 321 317 313 310 310 308 306 304 303 300 297 297 292 288 283 279 276 269 268 266 261 256 257 259 258 266 268 266 261 254 245 235 229 224 222 222 224 227 228 226 224 217 217 219 215 204 211 210 204 198 199 202 204 199 192 195 205
350 349 347 344 347 348 347 342 335 344 346 340 337 338 337 338 339 339 337 336 335 332 330 328 327 326 325 322 318 315 311 309 310 308 306 305 305 304 298 296 294 291 289 287 282 279 273 272 275 272 265 268 266 270 271 266 257 250 244 227 219 220 221 218 221 220 222 224 220 216 215 220 216 213 213 210 204 200 197 201 202 198 195 195 206
351 345 339 352 348 343 343 340 341 344 342 339 340 342 342 339 340 338 337 337 334 332 330 328 327 326 324 320 315 314 312 308 307 308 307 305 301 298 299 296 292 293 292 290 289 285 280 270 268 269 257 256 282 286 296 315 328 323 232 213 210 213 212 218 220 219 219 219 221 221 218 214 214 214 216 209 209 204 198 200 199 199 200 203 206
347 339 349 353 347 346 341 341 343 342 344 341 341 343 342 341 340 338 337 336 335 333 331 329 327 323 320 316 315 314 309 307 310 308 306 303 303 301 296 295 293 291 288 290 290 286 285 285 287 285 289 279 267 297 319 330 333 343 13 49 215 205 215 214 214 215 211 215 214 218 213 212 213 216 214 210 210 209 202 197 199 201 204 206 204
339 348 357 347 347 341 343 344 344 344 341 341 342 343 342 340 340 336 338 337 335 332 328 325 322 320 319 315 316 311 309 309 308 308 306 302 300 298 298 301 301 299 299 300 302 308 308 305 305 312 315 311 304 300 314 338 340 340 344 29 76 44 294 200 203 203 197 202 204 205 214 214 213 214 213 212 212 213 207 200 198 203 203 209 195
342 357 351 351 343 342 341 343 340 340 341 340 343 343 342 341 338 338 339 336 332 328 326 324 322 319 318 317 316 315 312 311 307 307 306 305 302 304 305 305 303 301 299 300 302 302 300 299 303 303 305 307 306 302 304 326 331 330 327 333 121 170 212 267 302 252 221 205 202 204 197 208 212 214 211 212 214 222 217 202 201 204 205 207 187
344 357 351 345 342 341 342 342 342 340 342 341 343 343 341 341 339 339 336 330 329 327 326 324 321 319 318 316 316 313 313 311 310 307 311 308 308 305 303 302 300 298 299 300 299 298 297 301 304 302 300 300 298 289 286 305 317 321 312 303 284 216 195 196 228 250 256 266 229 204 201 212 214 216 219 217 217 221 223 206 203 204 204 199 194
345 353 348 346 342 341 341 341 339 340 341 342 342 342 341 339 338 336 330 327 326 327 325 322 319 318 318 316 316 316 316 315 309 310 309 309 309 309 309 307 307 309 309 310 311 312 312 312 310 307 303 297 295 295 294 296 307 314 310 296 281 271 241 219 204 218 223 234 242 258 256 230 221 216 220 224 222 216 218 211 206 205 201 196 191
345 347 342 344 341 340 339 338 338 339 341 342 344 341 341 339 337 333 326 325 325 327 324 321 320 319 318 318 318 317 315 313 306 306 310 308 310 311 310 311 312 312 313 315 312 313 313 310 313 311 308 303 297 288 294 305 306 307 308 296 282 268 258 229 210 220 226 223 219 219 230 249 256 249 233 225 225 223 218 218 214 205 200 194 192
344 344 343 344 341 338 336 334 337 339 341 342 344 340 338 338 335 330 329 328 328 326 325 322 322 321 319 318 316 316 313 310 311 310 308 309 310 314 315 315 314 310 310 310 308 310 309 309 309 306 305 304 302 303 303 306 310 310 313 307 295 280 272 264 256 226 214 220 226 237 239 243 248 249 254 256 242 232 226 222 220 213 205 200 197
342 341 344 341 336 335 334 334 336 340 341 342 341 339 336 332 328 328 328 329 326 325 324 324 322 320 319 318 317 316 314 314 313 309 304 303 302 309 309 309 312 309 307 304 305 307 303 303 300 296 302 302 304 304 309 303 295 294 294 295 298 292 276 260 249 236 235 231 228 233 236 234 235 238 239 250 250 235 227 224 217 208 196 189 175
343 341 340 341 338 337 337 337 337 340 342 339 335 333 328 326 327 327 328 327 326 325 323 323 322 320 319 320 320 319 322 322 319 318 314 310 310 305 306 301 296 305 307 305 305 305 303 301 298 302 301 303 307 316 310 295 285 283 286 303 321 320 307 283 258 259 259 259 248 239 228 225 214 223 226 206 179 169 154 156 149 139 130 130 141
341 339 340 337 338 336 335 335 336 337 338 336 332 330 328 327 327 327 326 326 327 328 326 322 321 321 320 321 319 323 326 325 323 323 320 321 318 313 308 305 305 306 300 299 291 290 300 299 305 314 324 330 331 318 311 308 338 349 9 12 360 8 11 32 51 42 54 64 59 46 42 47 74 72 108 78 71 77 90 97 104 110 113 115 111
340 340 341 339 336 333 333 332 332 333 332 331 330 329 326 327 329 328 329 330 329 328 325 321 321 323 323 324 324 325 326 325 325 326 324 316 307 312 314 311 303 259 266 283 294 319 324 329 327 329 334 330 337 331 322 41 43 47 47 29 17 8 30 36 74 87 79 71 74 67 72 68 75 104 91 92 84 91 78 97 111 110 111 113 117
338 336 335 334 334 333 331 331 329 333 330 330 326 326 327 328 329 332 334 333 332 328 326 325 325 324 323 325 328 326 325 323 321 323 327 327 324 334 335 323 306 330 340 347 354 350 351 342 336 331 321 298 317 322 47 49 51 52 51 54 56 64 76 87 83 74 73 65 58 78 67 91 103 99 99 96 102 99 98 91 81 102 103 104 102
337 336 336 334 333 330 329 329 333 333 330 329 327 326 328 329 331 332 334 333 332 330 326 325 326 327 326 327 325 324 325 322 321 323 323 323 326 331 336 341 345 348 353 359 3 4 2 1 357 341 336 349 24 54 58 54 53 53 53 47 44 48 61 82 90 78 48 59 75 81 64 69 65 79 90 95 100 100 99 96 85 78 76 97 99